Regional Weather Roundup
Issued by NWS

Home | Current Version | Previous Version | Text Only | Print | Product List | Glossary On
Versions: 1 2 3 4 5 6 7 8 9 10 11 12 13 14 15 16 17 18 19 20 21 22 23 24 25 26 27 28 29 30 31 32 33 34 35 36 37 38 39 40 41 42 43 44 45 46 47 48 49 50
303
ASUS44 KLIX 290011
RWRLA
LOUISIANA WEATHER ROUNDUP
NATIONAL WEATHER SERVICE NEW ORLEANS LA
700 PM CDT SAT MAR 28 2015

NOTE: "FAIR" INDICATES FEW OR NO CLOUDS BELOW 12,000 FEET WITH NO
      SIGNIFICANT WEATHER AND/OR OBSTRUCTIONS TO VISIBILITY.
      SKY/WX - SKY CONDITION AND SIGNIFICANT WEATHER.
      TMP - AIR TEMPERATURE.    DP   - DEWPOINT TEMPERATURE.
      RH  - RELATIVE HUMIDITY.  PRES - PRESSURE.
      HX  - HEAT INDEX.         WCI  - WIND CHILL INDEX.

*  THESE STATIONS ARE NOT NWS OR FAA STATIONS AND ARE NOT UNDER
   NWS QUALITY CONTROL.

LAZ040-048-061>063-065-066-069-290100-
SOUTHEAST LOUISIANA

CITY           SKY/WX    TMP DP  RH WIND       PRES   REMARKS
N.O. AUDUBON     N/A     64 N/A N/A MISG        N/A
6HR MIN TEMP:  64; 6HR MAX TEMP:  70;

N.O. INTL ARPT PTCLDY    64  46  52 S14       30.19R
6HR MIN TEMP:  64; 6HR MAX TEMP:  70;

N.O. LAKEFRONT CLEAR     64  46  52 S14       30.20R
6HR MIN TEMP:  64; 6HR MAX TEMP:  68;

SLIDELL        CLEAR     62  44  51 S8        30.19R
6HR MIN TEMP:  62; 6HR MAX TEMP:  67;

BATON ROUGE    CLEAR     69  46  43 S12       30.14R
6HR MIN TEMP:  66; 6HR MAX TEMP:  74;

BOOTHVILLE     CLEAR     60  49  66 E6        30.22R
6HR MIN TEMP:  60; 6HR MAX TEMP:  63;

BELLE CHASSE   CLEAR     60  46  59 SE9       30.19R
6HR MIN TEMP:  60; 6HR MAX TEMP:  67;

BOGALUSA*        N/A     69  41  36 CALM      30.18R
6HR MIN TEMP:  63; 6HR MAX TEMP:  71;

GALLIANO*      CLEAR     64  51  61 CALM      30.20S
6HR MIN TEMP:  64; 6HR MAX TEMP:  68;

NEW ROADS*     FAIR      70  48  45 S8        30.14R
6HR MIN TEMP:  64; 6HR MAX TEMP:  73;

GONZALES*      FAIR      67  51  57 E3        30.16R
6HR MIN TEMP:  66; 6HR MAX TEMP:  73;

HAMMOND*       CLEAR     63  45  51 SE7       30.19R
HOUMA*         CLEAR     63  52  67 SE6       30.19R
PORT FOURCHON* CLEAR     64  54  68 SE9       30.23S

$$

LAZ041-044-053-054-290100-
SOUTHWEST LOUISIANA

CITY           SKY/WX    TMP DP  RH WIND       PRES   REMARKS
LAKE CHARLES   CLEAR     68  54  60 S7        30.12R
6HR MIN TEMP:  68; 6HR MAX TEMP:  73;

LAFAYETTE      CLEAR     67  54  63 S13       30.15R
6HR MIN TEMP:  67; 6HR MAX TEMP:  74;

PATTERSON      CLEAR     64  52  63 S10       30.17R
6HR MIN TEMP:  64; 6HR MAX TEMP:  72;

SALT POINT       N/A     63  55  75 VRB6      30.17R
6HR MIN TEMP:  63; 6HR MAX TEMP:  69; 6HR PCP:  0.02;

NEW IBERIA     CLEAR     66  55  67 S13       30.17R
6HR MIN TEMP:  66; 6HR MAX TEMP:  74;

CHENAULT AIRPK CLEAR     70  55  60 S10         N/A

$$

LAZ027-028-290100-
CENTRAL LOUISIANA

CITY           SKY/WX    TMP DP  RH WIND       PRES   REMARKS
FORT POLK      CLEAR     72  54  52 S14       30.07S
6HR MIN TEMP:  69; 6HR MAX TEMP:  77;

ALEXANDRIA INT CLEAR     71  51  49 S10       30.07S
6HR MIN TEMP:  65; 6HR MAX TEMP:  75;

ALEXANDRIA     CLEAR     71  48  43 S6        30.09S
6HR MIN TEMP:  66; 6HR MAX TEMP:  74;


$$

LAZ001-002-290100-
NORTHWEST LOUISIANA

CITY           SKY/WX    TMP DP  RH WIND       PRES   REMARKS
SHREVEPORT     CLEAR     75  48  38 S7        30.04R
6HR MIN TEMP:  67; 6HR MAX TEMP:  78;

BARKSDALE AFB  CLEAR     72  49  43 SE7       30.05R
6HR MIN TEMP:  64; 6HR MAX TEMP:  77;

DTN SHREVEPORT CLEAR     72  47  40 SE8       30.04S
6HR MIN TEMP:  63; 6HR MAX TEMP:  75;


$$

LAZ014-016-290100-
NORTHEAST LOUISIANA

CITY           SKY/WX    TMP DP  RH WIND       PRES   REMARKS
MONROE         CLEAR     61  43  51 NE12      30.15R
6HR MIN TEMP:  58; 6HR MAX TEMP:  66;

TALLULAH       CLEAR     58  39  49 E10       30.16S
6HR MIN TEMP:  54; 6HR MAX TEMP:  62; 6HR PCP: TRACE;


$$




USA.gov is the U.S. government's official web portal to all federal, state and local government web resources and services.